www.pogodaiklimat.ru
Время
и дата
08:54 19.05
09:09 19.05
09:54 19.05
10:54 19.05
11:54 19.05
12:54 19.05
13:54 19.05
14:54 19.05
15:54 19.05
16:54 19.05
17:54 19.05
18:54 19.05
19:54 19.05
20:54 19.05
21:54 19.05
22:54 19.05
23:54 19.05
00:26 20.05
00:41 20.05
00:54 20.05
01:54 20.05
02:46 20.05
02:54 20.05
03:24 20.05
03:54 20.05
04:54 20.05
05:54 20.05
06:21 20.05
06:54 20.05
07:54 20.05
08:54 20.05
09:54 20.05
10:54 20.05
11:54 20.05
12:25 20.05
12:54 20.05
13:54 20.05
14:54 20.05
15:54 20.05
16:54 20.05
17:54 20.05
18:54 20.05
19:54 20.05
20:54 20.05
21:54 20.05
22:54 20.05
23:54 20.05
00:54 21.05
Ветер
(напр.,м/с)
Видим. Явления Облачность Т
(С)
Тd
(С)
f
(%)
Тe
(С)
Тes
(С)
Комфортность P
(гПа)
Po
(гПа)
Тmin
(С)
Tmax
(С)
R
(мм)
R24
(мм)
S
(см)
штиль 0 10 км дымка 10/10 270 м +17.8 +16.1 90 +18 +18 1016.0 1010.4
СВ 2 11 км 10/10 180 м +18.3 +16.1 87 +19 +19 1010.4
С 2 13 км 10/10 450 м +18.9 +16.1 84 +21 +21 комфорт 1016.1 1010.4
штиль 0 16 км 10/10 480 м +19.4 +15.6 79 +21 +21 комфорт 1016.2 1010.4
С 3 16 км 10/10 810 м +20.6 +16.1 75 +24 +24 комфорт 1016.0 1010.0
ЮВ 3 16 км 8/8 750 м +20.0 +16.1 78 +23 +26 комфорт 1015.5 1009.7 +16.1 +21.7
штиль 0 16 км 10/10 840 м +21.7 +16.1 70 +25 +25 комфорт 1015.3 1009.7
нст 2 16 км 8/8 1020 м +22.2 +16.1 68 +26 +30 душно 1014.6 1008.7
штиль 0 16 км 8/8 810 м +22.2 +16.1 68 +26 +30 душно 1014.7 1009.0
нст 2 16 км 8/5 1200 m
[Ac]
+23.3 +16.1 64 +28 +30 душно 1014.4 1008.7
нст 2 16 км 2/2 1200 m
[Ac]
+22.8 +15.6 64 +27 +30 душно 1014.1 1008.3
СЗ 2 16 км 2/2 1200 m
[Ac]
+21.7 +15.6 68 +25 +26 комфорт 1014.5 1008.7 +20.0 +24.4
Ю 2 16 км 5/5 1500 м +19.4 +16.1 81 +22 +22 комфорт 1015.0 1009.4
ЮЗ 2 16 км 2/2 1500 м +18.9 +16.7 87 +21 +21 комфорт 1015.6 1009.7
штиль 0 16 км 2/2 1800 м +17.2 +16.1 93 +17 +17 1015.9 1010.0
штиль 0 16 км 5/0 2400 m
[Ac]
+15.6 +15.6 100 +15 +15 1016.2 1010.4
ЮВ 2 16 км 8/8 1200 м +16.7 +16.1 96 +17 +17 1016.5 1010.7
нст 2 16 км 8/8 240 м +16.1 +15.6 97 +16 +16 1010.7
В 2 16 км 8/8 240 м +16.1 +15.6 97 +16 +16 1010.7
В 3 16 км 10/10 210 м +16.7 +16.1 96 +16 +16 1016.5 1010.7 +15.6 +21.7
ЮВ 3 16 км 10/10 210 м +16.1 +15.6 97 +16 +16 1016.2 1010.4
В 3 16 км 8/8 210 м +16.1 +15.0 93 +16 +16 1010.4
ЮВ 2 16 км 8/8 210 м +16.1 +15.0 93 +16 +16 1016.1 1010.4
В 2 16 км 8/8 300 м +15.6 +14.4 93 +15 +15 1010.0
В 2 16 км 8/8 300 м +14.4 +13.9 97 +14 +14 1016.0 1010.0
ЮВ 4 16 км 8/8 360 м +14.4 +13.9 97 +13 +13 1016.3 1010.7
В 2 16 км 10/10 270 м +14.4 +13.9 97 +14 +14 1017.3 1011.4
В 2 16 км 10/10 300 м +15.0 +13.9 93 +15 +15 1012.0
ЮВ 2 16 км 10/10 300 м +15.0 +14.4 96 +15 +15 1018.1 1012.4 +13.9 +16.1
нст 2 16 км 8/8 300 м +16.7 +14.4 86 +17 +18 1018.5 1012.7
штиль 0 16 км 10/10 420 м +16.7 +14.4 86 +17 +17 1018.4 1012.7
штиль 0 16 км 10/10 480 м +17.8 +15.0 84 +18 +18 1018.2 1012.4
ЮВ 2 16 км 10/10 540 м +19.4 +15.6 79 +22 +22 комфорт 1018.2 1012.4
штиль 0 16 км 8/8 600 м +21.7 +16.7 73 +26 +31 душно 1017.6 1011.7
штиль 0 16 км 8/5 630 m
[Ci]
+21.1 +16.1 73 +24 +36 комфорт 1011.4
нст 3 16 км 8/5 690 m
[Ci]
+22.2 +16.1 68 +26 +34 душно 1017.2 1011.4 +15.0 +22.8
штиль 0 16 км 8/5 750 m
[Ci]
+23.3 +16.7 66 +28 +40 душно 1016.6 1010.7
СВ 2 16 км 8/2 900 m
[Ci]
+25.0 +17.2 62 +29 +40 душно 1016.0 1010.4
В 3 16 км 8/2 900 m
[Ci]
+25.0 +17.2 62 +29 +36 душно 1015.5 1009.7
ЮВ 4 16 км 8/2 900 m
[Ci]
+23.3 +17.2 69 +29 +32 душно 1015.3 1009.4
ЮВ 4 16 км 8/2 900 m
[Ci]
+21.7 +16.7 73 +26 +28 душно 1015.3 1009.7
ЮВ 3 16 км 8/2 900 m
[Ac Ci]
+20.6 +16.1 75 +24 +25 комфорт 1015.8 1010.0 +20.6 +25.6
ЮВ 2 16 км 5/0 7500 m
[Ci]
+19.4 +15.6 79 +22 +22 комфорт 1016.0 1010.4
штиль 0 16 км 2/0 7500 m
[Ci]
+17.8 +15.6 87 +18 +18 1016.5 1010.7
штиль 0 16 км 2/0 7500 m
[Ci]
+16.7 +15.6 93 +17 +17 1016.4 1010.7
штиль 0 16 км 2/0 7500 m
[Ci]
+17.2 +15.6 90 +17 +17 1016.0 1010.0
З 2 16 км 2/0 7500 m
[Ci]
+15.0 +14.4 96 +15 +15 1016.0 1010.4
штиль 0 16 км 2/0 7500 m
[Ci]
+15.6 +15.6 100 +15 +15 1015.9 1010.0 +14.4 +20.6
Местоположение метеостанции Baltimore-Washington International Airport: широта 39.1667 долгота -76.6833 высота над уровнем моря 48 м.
В архиве по умолчанию представлена погода в Балтиморе за последние 1-2 суток. Обновление информации о фактической погоде в базе происходит ежечасно! Архивные данные за месяц целиком и за предыдущие месяцы Вы можете получить, выбрав интересующий диапазон дат из раскрывающегося списка и нажав кнопку "Ввод!".
Внимание! Архив погоды МЕТАР в базе сайта по станциям, не включенным в климатический монитор, хранится не более 60 дней. Нет смысла пытаться выбрать более раннюю дату.
*Определитесь, кто Вы:
Внимание! Время в таблицах - местное (без учета летнего времени). Для получения всемирного времени необходимо вычесть поправку, которая равна -5 ч.
Смотрите также архив погоды в соседних городах и на ближайших метеорологических станциях:
Партнеры нашего сайта:      
Пояснения к столбцам:
  • Ветер - указаны скорость ветра в м/с - средняя за 10 мин, порывы в срок и между сроками (в фигурных скобках) и направление, откуда дует ветер: С - северный,
  • СВ - северо-восточный, В - восточный, ЮВ - юго-восточный, Ю - южный, ЮЗ - юго-западный, З - западный, СЗ - северо-западный.
  • Видимость - горизонтальная дальность видимости в метрах или километрах. При видимости от 1 до 10 км при отсутствии осадков обычно наблюдается дымка, при ухудшении видимости до 1 км и менее - туман. В сухую погоду видимость может ухудшаться дымом, пылью или мглою.
  • Явления - указаны атмосферные явления, наблюдавшиеся в срок или в последний час перед сроком; фигурными скобками обозначены явления, наблюдавшиеся между сроками (за 1-3 часа до срока); квадратными скобками обозначены град или гололедные отложения с указанием их диаметра в мм.
  • Облачность - указаны через наклонную черту общая и нижняя облачность в баллах и высота нижней границы облаков в метрах; квадратными скобками обозначены формы облаков: Ci - перистые, Cs - перисто-слоистые, Cc - перисто-кучевые, Ac - высококучевые, As - высокослоистые, Sc - слоисто-кучевые, Ns - слоисто-дождевые, Cu - кучевые, Cb - кучево-дождевые. Подробнее классификацию облаков см. в Атласе облаков (PDF).
  • T - Температура воздуха - температура, измеренная на высоте 2 м над землей.
  • Td - Температура точки росы - температура, при понижении до которой содержащийся в воздухе водяной пар достигнет насыщения.
  • f - Относительная влажность воздуха - влажноcть воздуха, измеренная на высоте 2 м над землей.
  • Te - Эффективная температура - температура, которую ощущает одетый по сезону человек в тени. Характеристика душности погоды. При расчете учитывается влияние влажности воздуха и скорости ветра на теплоощущения человека.
  • Tes - Эффективная температура на солнце - температура, которую ощущает человек, с поправкой на солнечный нагрев. Характеристика знойности погоды. Зависит от высоты солнца над горизонтом, облачности и скорости ветра. Ночью, в пасмурную погоду, а также при ветре 12 м/с и более поправка равна нулю.
  • P - Атмосферное давление - приведенное к уровню моря атмосферное давление.
  • Po - Атмосферное давление - измеренное на уровне метеостанции атмосферное давление.
  • Tmin - Минимальная температура - минимум температуры воздуха на высоте 2 м над землей.
  • Tmax - Максимальная температура - максимум температуры воздуха на высоте 2 м над землей.
  • R - Количество осадков - Количество выпавших осадков за период времени, мм. При наведении курсора мыши на число - период времени, за который выпало указанное количество осадков.
  • R24 - Количество осадков - Количество выпавших осадков за 24 часа, мм.
  • S - Снежный покров - Высота снежного покрова, см. При наведении курсора мыши на число - состояние снежного покрова и степень покрытия местности в баллах.